DW2789 Weather Reports


Display with metric or nautical units.
time (UTC)temp
F
wind
direction
speed
MPH
gust
MPH
rain 1hr
in
rain 24hr
in
rain mn
in
humidity
%
barometer
mb
20260503032002 69 24 0.0 0.0 0.00 0.00 0.00 56 1010.8
20260503031007 70 24 0.0 0.0 0.00 0.00 0.00 55 1010.7
20260503025947 72 24 0.0 0.0 0.00 0.00 0.00 54 1010.7
20260503023947 75 24 0.0 0.0 0.00 0.00 0.00 50 1010.5
20260503022929 77 24 0.0 0.0 0.00 0.00 0.00 51 1010.5
20260503021955 78 24 0.0 0.0 0.00 0.00 0.00 49 1010.6
20260503020937 79 24 0.0 0.0 0.00 0.00 0.00 49 1010.5
20260503015942 79 24 0.0 0.0 0.00 0.00 0.00 46 1010.5
20260503014928 79 24 0.0 3.0 0.00 0.00 0.00 44 1010.5
20260503013937 81 24 0.0 2.0 0.00 0.00 0.00 47 1010.5
20260503012940 81 24 0.0 7.0 0.00 0.00 0.00 44 1010.6
20260503011942 82 24 0.0 0.0 0.00 0.00 0.00 43 1010.7
20260503010947 82 24 0.0 0.0 0.00 0.00 0.00 46 1010.7
20260503004927 82 24 0.0 7.0 0.00 0.00 0.00 47 1010.8
20260503003933 81 24 0.0 5.0 0.00 0.00 0.00 49 1010.9
20260503002936 81 24 1.0 5.0 0.00 0.00 0.00 51 1010.9
20260503001939 80 24 0.0 5.0 0.00 0.00 0.00 49 1010.9
20260503000929 80 24 0.0 0.0 0.00 0.00 0.00 49 1011.0
20260502235951 80 24 0.0 0.0 0.00 0.00 0.00 51 1011.0
20260502234948 80 24 0.0 0.0 0.00 0.00 0.00 51 1011.0
20260502233946 80 24 0.0 0.0 0.00 0.00 0.00 52 1011.1
20260502232946 79 24 0.0 0.0 0.00 0.00 0.00 50 1011.2
20260502231927 78 24 0.0 0.0 0.00 0.00 0.00 50 1011.3
20260502230933 78 24 0.0 0.0 0.00 0.00 0.00 52 1011.4
20260502225935 78 24 0.0 0.0 0.00 0.00 0.00 55 1011.6
20260502225001 78 24 0.0 0.0 0.00 0.00 0.00 50 1011.8
20260502223942 77 24 0.0 0.0 0.00 0.00 0.00 50 1012.0
20260502222945 76 24 0.0 0.0 0.00 0.00 0.00 52 1012.1
20260502221928 76 24 0.0 0.0 0.00 0.00 0.00 53 1012.2
20260502220938 76 24 0.0 0.0 0.00 0.00 0.00 53 1012.4
20260502215939 76 24 0.0 0.0 0.00 0.00 0.00 52 1012.4
20260502215001 75 26 0.0 0.0 0.00 0.00 0.00 52 1012.5
20260502213942 75 26 0.0 0.0 0.00 0.00 0.00 54 1012.6
20260502212945 75 26 0.0 0.0 0.00 0.00 0.00 52 1012.7
20260502211932 75 26 0.0 0.0 0.00 0.00 0.00 53 1012.7
20260502210934 75 26 0.0 4.0 0.00 0.00 0.00 56 1012.8
20260502205938 75 26 2.0 6.0 0.00 0.00 0.00 55 1012.9
20260502204938 75 26 2.0 8.0 0.00 0.00 0.00 52 1013.1
20260502203936 74 26 0.0 6.0 0.00 0.00 0.00 56 1013.2
20260502202937 74 26 0.0 8.0 0.00 0.00 0.00 53 1013.3
20260502201937 73 26 1.0 7.0 0.00 0.00 0.00 54 1013.4
20260502200936 73 26 0.0 5.0 0.00 0.00 0.00 56 1013.5
20260502195941 72 26 2.0 6.0 0.00 0.00 0.00 57 1013.5
20260502194943 72 26 3.0 6.0 0.00 0.00 0.00 55 1013.5
20260502194007 71 26 0.0 3.0 0.00 0.00 0.00 55 1013.7
20260502192929 70 26 1.0 6.0 0.00 0.00 0.00 54 1013.7
20260502191955 70 26 0.0 7.0 0.00 0.00 0.00 56 1013.7
20260502190940 70 26 2.0 6.0 0.00 0.00 0.00 55 1013.7
20260502185943 70 26 3.0 6.0 0.00 0.00 0.00 55 1013.7
20260502185004 70 26 2.0 7.0 0.00 0.00 0.00 54 1013.7
20260502183926 69 26 1.0 5.0 0.00 0.00 0.00 55 1013.7
20260502182934 69 26 0.0 5.0 0.00 0.00 0.00 58 1013.7
20260502181940 68 26 1.0 6.0 0.00 0.00 0.00 61 1013.7
20260502180943 68 26 0.0 0.0 0.00 0.00 0.00 60 1013.6
20260502162944 61 26 0.0 0.0 0.00 0.00 0.00 70 1013.7
20260502161931 61 26 0.0 0.0 0.00 0.00 0.00 69 1013.7
20260502160937 60 26 0.0 0.0 0.00 0.00 0.00 68 1013.7
20260502152005 59 26 0.0 0.0 0.00 0.00 0.00 70 1013.5
20260502150930 59 26 0.0 0.0 0.00 0.00 0.00 68 1013.4
20260502122935 55 26 0.0 0.0 0.00 0.00 0.00 57 1012.9
20260502121941 56 26 0.0 0.0 0.00 0.00 0.00 57 1012.8
20260502120942 56 26 0.0 0.0 0.00 0.00 0.00 56 1012.8
20260502114926 58 26 0.0 0.0 0.00 0.00 0.00 55 1012.8
20260502113935 59 26 0.0 0.0 0.00 0.00 0.00 51 1012.8
20260502112936 60 26 0.0 0.0 0.00 0.00 0.00 51 1012.9
20260502111937 60 26 0.0 0.0 0.00 0.00 0.00 49 1012.9
20260502110939 61 26 0.0 0.0 0.00 0.00 0.00 48 1012.9
20260502105941 61 26 0.0 0.0 0.00 0.00 0.00 47 1012.9
20260502104946 62 26 0.0 3.0 0.00 0.00 0.00 45 1012.8
20260502103930 62 26 0.0 2.0 0.00 0.00 0.00 45 1012.7
20260502102933 63 26 0.0 0.0 0.00 0.00 0.00 46 1012.7
20260502101956 64 26 0.0 0.0 0.00 0.00 0.00 44 1012.6
20260502090958 65 360 2.0 10.0 0.00 0.00 0.00 40 1012.4
20260502070942 65 360 0.0 8.0 0.00 0.00 0.00 42 1012.7
20260502065948 65 360 0.0 4.0 0.00 0.00 0.00 42 1012.6
20260502064930 65 360 1.0 7.0 0.00 0.00 0.00 42 1012.6
20260502063936 64 360 0.0 4.0 0.00 0.00 0.00 43 1012.6
20260502062946 64 360 0.0 2.0 0.00 0.00 0.00 44 1012.6
20260502061948 63 360 0.0 0.0 0.00 0.00 0.00 45 1012.7
20260502060930 63 360 0.0 0.0 0.00 0.00 0.00 47 1012.7
20260502055931 63 360 0.0 0.0 0.00 0.00 0.00 47 1012.7
20260502054940 62 360 0.0 0.0 0.00 0.00 0.00 48 1012.7
20260502054014 62 360 0.0 0.0 0.00 0.00 0.00 50 1012.6
20260502052958 61 360 0.0 0.0 0.00 0.00 0.00 52 1012.6
20260502051935 62 360 0.0 0.0 0.00 0.00 0.00 52 1012.6
20260502050943 63 360 0.0 0.0 0.00 0.00 0.00 51 1012.6
20260502045938 64 360 0.0 0.0 0.00 0.00 0.00 51 1012.6
20260502044942 65 360 0.0 1.0 0.00 0.00 0.00 51 1012.7
20260502043943 65 360 0.0 4.0 0.00 0.00 0.00 48 1012.7
20260502041939 63 338 4.0 11.0 0.00 0.00 0.00 53 1012.7
20260502040941 61 294 0.0 0.0 0.00 0.00 0.00 56 1012.7
20260502035926 62 294 0.0 0.0 0.00 0.00 0.00 62 1012.9
20260502034933 62 294 0.0 0.0 0.00 0.00 0.00 61 1012.9
20260502033935 63 294 0.0 0.0 0.00 0.00 0.00 60 1012.8
20260502032937 64 294 0.0 0.0 0.00 0.00 0.00 60 1012.7